This is the latest recevied weather packets stored in our database for station/object KD2DXJ. If no packets are shown the sender has not sent any weather packets the latest 10 day(s).
| Time | Temp. | Humidity | Pressure | Rain* | Wind** | Luminosity | Snow |
|---|---|---|---|---|---|---|---|
| 1778014599 | 19.44° C | 65% | 1003.4 hPa | 0 mm | - | 114 W/m² | - |
| 1778014297 | 19.44° C | 64% | 1003.5 hPa | 0 mm | - | 153 W/m² | - |
| 1778013993 | 20° C | 64% | 1003.3 hPa | 0 mm | - | 151 W/m² | - |
| 1778013692 | 19.44° C | 64% | 1003 hPa | 0 mm | - | 159 W/m² | - |
| 1778013388 | 20° C | 62% | 1003 hPa | 0 mm | - | 122 W/m² | - |
| 1778013085 | 20° C | 63% | 1002.9 hPa | 0 mm | - | 246 W/m² | - |
| 1778012780 | 20° C | 63% | 1003.2 hPa | 0 mm | - | 191 W/m² | - |
| 1778012477 | 19.44° C | 63% | 1003 hPa | 0 mm | - | 150 W/m² | - |
| 1778012174 | 20° C | 64% | 1003.1 hPa | 0 mm | - | 94 W/m² | - |
| 1778011871 | 20° C | 63% | 1003.3 hPa | 0 mm | - | 67 W/m² | - |
| 1778011569 | 20° C | 63% | 1003 hPa | 0 mm | - | 81 W/m² | - |
| 1778011266 | 20° C | 64% | 1002.9 hPa | 0 mm | - | 116 W/m² | - |
| 1778010962 | 20° C | 63% | 1002.9 hPa | 0 mm | - | 183 W/m² | - |
| 1778010660 | 20° C | 64% | 1003 hPa | 0 mm | - | 154 W/m² | - |
| 1778010357 | 20° C | 64% | 1003 hPa | 0 mm | - | 176 W/m² | - |
| 1778010052 | 20° C | 63% | 1002.9 hPa | 0 mm | - | 190 W/m² | - |
| 1778009749 | 20° C | 63% | 1003 hPa | 0 mm | - | 206 W/m² | - |
| 1778009446 | 20.56° C | 64% | 1003.1 hPa | 0 mm | - | 214 W/m² | - |
| 1778009145 | 20.56° C | 63% | 1003 hPa | 0 mm | - | 155 W/m² | - |
| 1778008842 | 20.56° C | 63% | 1003 hPa | 0 mm | - | 220 W/m² | - |
| 1778008540 | 21.11° C | 62% | 1002.9 hPa | 0 mm | - | 626 W/m² | - |
| 1778008238 | 20° C | 64% | 1002.9 hPa | 0 mm | - | 277 W/m² | - |
| 1778007938 | 20° C | 65% | 1002.8 hPa | 0 mm | - | 245 W/m² | - |
| 1778007634 | 20° C | 65% | 1002.7 hPa | 0 mm | - | 149 W/m² | - |
| 1778007332 | 20.56° C | 62% | 1002.9 hPa | 0 mm | - | 126 W/m² | - |
* Rain latest hour (hover to see other rain measurements)
** Current wind speed in m/s (hover to see current wind gust speed)